Theta_e
308 308 308 308 309 308 308 309 309 309 309 309 309 310 310 310 310 310 310 309 310 310 310 310 309 310 309 309 309 309 308 307 308 306 308 309 306 306 306 306 306 309 309 307 308 308 308 309 309 309 311 312 312 312 313 313 310 310 313 313 311 310 310 311 312 311 310 312 313 310 310 310 314 333 341 339 342 342 341 341 339 341 341 343 345 345 344 342
308 308 308 308 308 308 308 308 309 309 309 309 309 309 309 310 310 310 310 309 309 310 310 309 310 310 309 309 309 308 308 307 307 309 313 310 310 309 306 306 307 309 309 308 307 308 309 310 310 310 311 312 311 312 313 312 311 312 314 312 311 311 311 311 311 310 311 311 312 311 309 310 311 322 333 337 343 341 342 342 340 342 343 343 345 344 343 341
307 308 307 308 308 307 308 308 308 309 309 310 309 309 309 309 310 309 310 310 310 310 309 309 309 309 309 309 309 309 308 306 312 318 317 315 313 310 307 307 308 309 309 309 308 308 310 310 310 310 312 313 311 311 313 312 312 312 312 312 312 312 311 311 311 310 311 310 312 312 309 310 309 311 321 333 342 342 342 343 342 344 343 343 343 343 343 341
307 308 307 307 307 307 308 308 308 309 309 310 309 309 310 309 310 309 310 310 310 309 309 309 309 309 309 309 309 308 307 311 318 318 317 316 314 309 308 308 309 309 309 309 308 308 309 310 309 311 312 312 310 310 313 312 312 312 310 313 312 310 312 312 312 311 309 309 311 310 310 312 310 312 320 331 339 340 340 341 342 345 342 343 343 342 343 342
307 307 307 307 307 307 308 308 308 309 309 309 308 309 309 310 310 309 310 310 309 310 309 309 309 309 308 308 308 307 310 316 316 316 316 316 313 308 307 309 312 310 310 310 308 307 307 308 309 311 312 311 311 311 313 311 309 311 310 313 311 309 312 312 312 312 310 309 310 310 311 310 309 315 327 335 330 326 332 333 335 341 341 342 343 342 343 342
307 307 307 307 306 307 307 307 308 308 308 308 308 309 309 309 309 309 310 310 309 309 309 309 309 308 307 307 308 308 310 310 312 313 311 314 313 308 307 311 312 311 311 310 307 307 307 307 309 311 312 311 312 313 312 309 308 311 311 310 309 309 311 312 311 312 311 309 310 310 309 309 310 311 323 331 323 323 332 331 332 339 341 342 343 342 342 340
307 307 307 307 306 307 307 307 307 307 307 307 308 308 309 309 309 309 309 309 309 309 309 309 309 308 306 306 310 310 310 310 309 309 309 313 313 307 309 311 312 311 311 309 306 307 307 308 310 311 311 311 311 312 311 309 308 311 311 310 310 309 309 312 311 310 311 308 309 309 307 310 310 309 316 322 325 334 337 335 334 339 342 342 342 341 342 340
306 306 307 307 307 307 307 306 306 307 307 307 308 308 309 309 308 309 309 309 309 309 309 309 308 307 306 307 311 310 310 311 309 311 311 313 314 308 310 311 311 312 311 309 307 306 308 308 310 310 311 312 310 311 310 309 309 310 312 311 310 308 309 310 308 309 309 307 308 306 309 310 307 313 316 318 333 339 338 337 338 339 341 342 342 341 342 341
306 306 307 307 307 307 306 306 306 306 307 307 308 308 308 308 308 309 309 308 308 309 309 309 308 307 307 308 309 306 307 311 312 316 314 314 314 309 310 311 311 313 311 308 306 307 308 308 310 310 311 311 309 310 309 310 310 310 311 311 310 309 309 309 308 310 309 307 307 307 312 309 306 314 315 324 339 340 337 339 338 339 341 341 342 342 341 339
304 305 306 306 307 306 305 306 306 306 307 307 306 307 308 308 308 309 308 308 307 308 309 308 308 307 307 309 308 303 306 311 314 317 316 316 314 309 310 311 312 313 312 307 306 307 307 309 311 310 311 309 308 309 307 309 310 309 310 310 310 309 308 309 310 310 308 308 308 309 312 307 309 314 313 332 340 338 338 340 338 340 342 341 342 341 339 337
302 302 304 305 306 306 305 306 306 306 307 307 306 306 307 308 307 307 307 308 307 308 308 308 308 307 307 310 307 302 306 309 310 313 316 317 314 310 309 310 311 314 312 308 307 308 306 308 310 310 312 310 308 308 307 308 308 308 310 310 310 309 309 308 310 309 307 309 308 308 310 307 310 310 314 337 339 338 339 339 339 340 341 342 342 341 339 337
300 300 301 302 303 304 305 306 306 306 306 306 306 306 306 306 306 306 307 307 308 309 308 307 308 307 308 310 308 306 306 308 308 309 313 315 314 311 309 310 311 312 313 310 308 308 306 308 310 311 311 310 310 309 308 307 307 308 309 310 311 309 311 310 309 308 307 310 308 308 309 309 309 310 325 339 339 338 339 339 339 339 340 342 342 340 339 338
299 299 299 300 300 302 303 304 305 306 305 305 305 305 305 306 306 307 307 307 308 308 308 308 307 306 308 312 310 308 307 309 309 310 312 314 313 312 310 310 311 312 313 311 309 309 308 309 311 312 310 310 311 309 308 307 307 309 308 309 311 310 311 310 308 307 308 309 308 309 309 310 311 310 328 341 338 338 339 340 340 339 340 341 340 340 339 338
298 299 299 300 300 300 301 303 304 305 305 305 305 305 305 305 305 306 307 308 308 308 309 308 307 308 311 313 310 310 311 311 312 311 312 312 311 311 311 311 311 312 313 310 308 308 308 309 310 310 309 310 311 309 308 308 308 309 307 309 309 309 310 309 308 307 309 308 306 310 307 310 314 306 322 339 339 339 340 339 340 339 340 339 340 340 338 337
299 299 299 299 299 299 300 301 303 304 304 304 304 304 304 304 305 305 306 308 308 309 308 307 308 309 312 315 311 312 314 314 314 312 312 313 310 309 310 310 310 311 311 309 307 307 307 308 309 310 309 308 309 309 310 310 309 309 308 310 309 308 310 311 310 308 311 309 305 310 308 310 314 308 324 340 339 339 339 339 340 339 339 339 340 340 338 335
298 299 299 300 299 299 300 300 301 303 304 304 304 305 305 305 305 305 307 307 308 309 308 309 309 308 314 315 311 311 313 313 315 314 312 313 310 308 309 309 309 308 309 308 307 308 308 308 309 308 308 307 308 310 310 310 310 309 309 311 310 309 310 312 311 309 310 310 307 309 309 312 311 312 330 341 338 339 340 339 339 339 339 338 339 340 338 334
298 299 299 300 300 299 299 300 301 302 303 305 304 306 307 306 305 307 307 308 309 309 308 311 309 308 313 313 311 311 312 312 314 315 314 313 310 308 307 308 307 306 307 307 307 307 308 309 308 307 308 309 309 310 310 310 310 310 311 312 311 311 311 312 313 309 307 308 311 309 309 312 311 318 336 341 338 339 338 339 339 339 338 338 339 339 338 335
299 299 299 300 300 300 300 300 301 302 302 304 305 308 309 307 307 308 308 308 309 308 309 310 309 311 311 309 310 311 310 311 312 313 314 312 309 307 308 308 307 306 306 306 307 308 308 308 309 309 310 310 310 310 310 310 310 311 312 312 311 311 311 312 313 311 308 310 312 310 310 310 313 327 341 341 339 340 339 340 339 338 338 338 338 337 337 337
300 299 299 300 300 300 300 301 302 302 302 303 305 309 310 309 308 309 308 308 310 313 315 313 312 312 309 308 309 310 311 312 311 312 312 311 309 308 308 307 307 307 308 309 308 308 308 309 310 310 310 311 312 311 310 310 311 311 311 311 311 312 311 312 313 311 310 312 313 311 311 310 313 331 343 341 340 341 339 340 339 339 338 336 337 337 337 337
300 300 299 300 300 300 300 301 302 302 302 302 304 308 313 314 314 313 311 310 313 314 315 315 313 312 311 310 310 312 313 312 311 310 311 311 309 308 309 307 308 309 309 312 310 308 309 310 311 311 312 315 318 318 315 314 313 312 311 311 311 311 312 313 312 310 310 313 313 311 312 310 311 329 342 341 341 341 340 341 340 340 338 336 337 336 336 337
301 300 301 300 300 301 300 301 302 303 303 302 303 308 312 311 312 313 313 314 314 313 314 314 313 312 312 311 311 312 313 312 312 311 310 310 309 309 309 308 310 310 310 312 311 310 310 310 312 316 318 321 323 321 319 317 315 313 312 312 312 312 313 313 311 311 311 312 313 310 309 311 312 325 340 341 343 342 340 341 340 341 338 336 337 336 336 336
301 302 301 301 301 301 300 301 301 302 302 303 304 308 311 309 309 309 310 312 312 312 314 313 312 312 311 311 311 312 312 314 313 311 310 309 309 309 308 308 310 311 311 311 311 312 311 311 314 318 318 320 320 318 317 317 317 315 312 313 314 312 311 313 313 313 312 312 313 310 310 315 316 323 335 339 342 343 340 340 340 340 338 337 337 336 336 336
302 302 302 302 302 300 300 300 300 301 303 304 304 307 310 309 308 309 309 312 312 312 314 313 312 312 312 312 312 312 312 313 314 312 309 308 309 309 308 308 310 310 311 311 311 312 312 312 314 316 316 317 318 317 317 317 316 315 314 313 313 312 310 311 315 316 315 314 314 312 312 318 320 326 333 331 334 340 339 340 340 339 339 337 337 336 336 336
302 302 302 303 302 301 301 299 300 304 305 304 304 306 307 306 308 309 310 313 315 314 312 312 312 312 313 314 313 313 313 313 314 313 310 309 309 308 308 309 309 309 309 309 311 311 310 311 310 312 315 316 318 317 316 314 314 316 316 314 313 314 312 312 315 317 317 316 317 315 313 315 319 329 335 328 328 334 337 339 342 340 339 338 337 337 336 336
302 302 302 303 303 302 300 299 303 305 303 302 303 306 305 304 307 310 313 316 316 315 313 312 312 313 313 313 313 313 313 313 314 313 310 309 308 308 308 308 308 309 309 308 309 309 310 311 310 313 314 314 316 317 316 315 313 315 318 316 314 315 315 316 318 318 316 315 316 315 312 313 316 322 329 329 329 332 333 338 342 341 340 338 337 337 336 336
300 300 301 302 303 302 299 302 305 303 302 302 304 306 304 304 308 311 314 318 317 316 316 313 313 315 313 313 313 312 314 313 313 312 309 309 309 309 309 308 308 309 308 308 309 310 310 309 311 315 316 314 313 313 315 316 313 312 318 319 315 315 317 319 319 316 313 313 316 315 312 313 315 316 319 321 327 332 331 335 339 339 340 338 337 337 336 336
299 299 299 301 302 303 303 304 302 300 302 303 304 304 303 306 311 311 313 317 316 316 316 312 312 314 313 313 312 312 315 314 311 310 308 309 309 308 309 308 307 308 308 310 312 311 311 311 311 315 316 314 311 313 316 315 312 314 319 317 312 313 317 321 320 315 314 315 316 317 314 313 314 315 315 315 321 328 329 332 335 335 337 337 337 336 334 335
298 298 298 300 302 302 303 303 301 301 302 302 303 302 304 309 312 314 316 313 311 314 314 311 311 311 311 312 312 313 313 313 313 311 309 309 309 309 309 309 308 309 309 310 311 312 314 315 315 317 316 312 313 316 316 314 312 315 317 314 312 314 318 320 318 315 317 316 313 316 316 314 313 315 316 316 319 323 325 328 331 333 335 335 336 335 334 334
298 298 299 300 301 301 302 302 301 303 301 302 302 302 307 311 313 315 315 311 311 313 312 311 312 310 311 312 313 312 312 313 313 310 309 309 309 309 309 309 309 309 308 310 312 314 314 313 313 314 313 313 316 316 313 314 315 313 312 312 312 314 317 318 316 316 317 315 312 316 317 313 313 315 316 316 318 319 321 321 321 325 330 333 334 334 333 333
297 298 299 300 300 301 301 301 302 301 301 302 301 303 308 314 317 315 311 312 314 312 311 312 312 311 312 314 314 313 312 313 311 308 309 310 309 309 308 307 309 310 311 313 313 312 311 311 312 312 311 313 314 310 308 311 313 311 312 313 312 314 317 318 317 316 316 314 313 316 317 315 313 315 315 317 317 317 318 319 318 317 320 326 331 331 331 331
297 298 299 300 301 302 301 302 303 302 305 303 301 306 311 315 317 312 312 313 311 311 312 312 312 311 312 314 314 313 312 313 311 310 310 310 309 310 308 308 310 311 314 314 312 312 312 310 311 313 312 310 309 308 306 307 308 311 313 314 313 314 317 316 316 316 314 315 315 314 315 316 313 314 316 318 318 317 319 322 321 319 318 319 324 328 329 329
298 298 298 300 302 302 301 302 301 303 306 302 302 311 315 314 313 312 316 315 310 312 314 311 313 312 311 312 312 312 312 313 312 311 312 311 310 311 310 312 313 312 312 313 314 314 314 312 311 311 311 310 310 311 308 307 309 311 314 314 312 313 315 314 315 315 315 316 315 314 315 315 314 315 317 319 321 321 321 322 322 323 322 318 318 325 328 327
298 298 299 302 303 303 303 301 301 302 301 300 305 315 315 313 314 314 315 313 310 313 313 312 313 311 310 311 311 311 311 313 313 311 311 311 311 311 310 311 313 314 315 314 313 313 314 314 312 310 311 311 311 312 311 311 311 311 313 314 313 313 314 315 315 314 315 316 315 313 314 315 314 316 318 319 321 321 322 323 323 323 322 319 318 323 327 326
298 299 302 304 305 305 304 303 303 302 300 303 310 314 311 311 314 316 315 312 311 312 312 311 310 310 311 312 312 312 311 312 312 310 311 310 311 313 311 309 310 314 317 314 312 313 314 313 313 312 311 310 311 311 312 312 310 310 311 312 313 313 314 314 314 315 315 316 316 313 314 316 316 317 316 316 318 320 323 324 323 323 322 322 323 324 326 325
299 301 304 306 306 307 307 306 304 302 302 308 314 313 311 310 311 313 315 314 313 313 311 308 309 312 313 313 313 312 311 313 311 309 311 311 312 315 313 310 310 313 316 315 312 313 311 312 313 311 309 309 310 310 309 310 310 308 308 311 312 313 316 314 313 315 316 316 317 314 314 315 315 315 313 314 319 323 325 324 324 325 324 325 325 325 325 325
300 304 306 307 307 308 309 308 305 302 305 312 314 312 312 311 309 310 313 313 311 311 309 307 309 312 314 315 315 312 312 313 311 311 311 311 312 313 312 312 310 311 313 315 316 313 310 314 314 309 307 308 307 308 308 308 311 309 308 310 310 311 317 316 312 312 314 316 316 313 315 316 316 317 314 317 324 326 325 325 325 325 326 326 327 326 326 326
302 306 307 307 307 307 309 310 305 302 307 312 314 315 313 311 308 309 312 312 310 310 309 308 310 311 313 316 315 313 314 313 312 312 312 311 312 311 312 313 310 310 311 314 317 314 312 316 315 309 308 308 305 307 307 307 309 310 309 311 309 309 314 316 314 312 312 316 315 311 315 318 318 318 315 318 327 327 325 325 325 325 326 327 326 326 326 326
303 305 307 306 306 307 309 308 303 305 310 311 313 316 313 308 307 309 313 311 309 310 310 310 311 311 312 315 315 313 313 314 315 315 313 312 312 312 313 313 309 309 310 310 314 313 312 315 313 310 309 308 307 308 308 307 306 308 309 309 310 311 313 314 314 315 314 314 314 312 313 316 317 317 316 318 325 328 326 325 326 326 325 326 325 325 324 324
303 307 309 306 305 307 308 306 304 308 311 308 311 315 311 309 310 311 313 312 310 310 311 311 309 310 311 312 314 313 312 316 317 315 313 313 313 313 312 312 310 309 309 310 312 313 314 316 314 310 308 307 309 310 310 310 307 307 309 308 309 313 314 313 313 315 315 313 312 313 314 315 316 316 316 317 319 324 326 326 325 325 324 324 324 324 324 324
304 309 309 305 305 306 305 305 306 309 309 308 310 312 310 311 313 313 314 312 311 310 311 311 308 310 313 311 310 312 313 317 316 314 316 316 314 314 312 310 310 309 308 309 311 314 316 314 313 312 309 307 309 309 309 311 310 309 311 311 311 311 310 312 312 311 312 313 312 313 314 315 315 313 314 316 316 317 321 325 326 324 323 323 322 323 324 324
305 310 309 304 305 306 306 308 309 309 311 310 310 311 312 313 314 315 315 312 311 310 310 311 310 311 314 311 309 311 314 318 315 314 319 318 316 316 311 308 309 309 309 310 313 317 316 313 315 316 311 309 309 307 305 307 308 309 312 311 312 312 311 312 312 310 311 313 312 313 314 315 315 313 313 316 316 314 316 323 325 323 323 322 322 322 322 322
308 310 307 304 306 307 308 311 311 311 314 312 309 311 313 313 313 314 313 310 310 310 308 310 311 311 312 311 309 310 313 316 314 313 319 320 318 317 313 311 309 308 310 310 312 316 319 318 317 313 309 308 307 305 304 304 305 307 310 309 310 314 315 314 314 313 312 310 311 312 313 315 314 311 312 315 316 315 317 323 325 322 322 322 321 321 321 321
311 309 305 304 307 308 309 312 312 314 316 312 310 311 312 313 313 312 310 308 308 309 308 309 309 309 310 309 307 308 310 313 312 311 315 317 316 314 315 317 313 309 310 313 313 317 321 321 315 309 308 308 307 306 305 305 306 308 308 306 307 311 314 316 316 316 314 311 312 313 312 315 314 310 310 314 317 319 321 323 324 322 323 322 321 321 320 320
308 307 307 306 305 307 309 310 310 311 313 313 312 311 310 310 310 309 309 307 307 308 309 310 308 307 308 308 308 308 309 311 312 310 311 314 312 310 313 318 318 316 315 315 317 318 318 318 316 311 309 308 308 309 308 307 308 309 308 306 306 308 313 315 314 315 315 312 312 313 313 315 313 310 309 311 315 319 321 321 322 322 322 321 320 320 320 320
306 307 309 308 306 306 308 307 307 308 310 313 313 310 309 309 307 306 307 306 304 304 307 308 306 306 307 308 309 308 307 310 312 311 309 311 311 308 308 312 319 324 322 318 319 319 315 314 316 314 311 310 310 310 309 309 309 308 307 307 307 308 313 315 313 313 313 311 311 313 313 315 313 310 310 310 312 316 317 318 319 319 319 320 320 319 318 318
308 308 308 309 309 307 307 306 305 306 308 311 310 306 307 309 307 305 305 306 304 303 304 304 303 306 308 310 312 311 307 307 310 310 308 309 309 308 307 308 313 320 324 320 319 320 317 312 311 313 312 309 308 307 307 308 309 308 307 309 309 308 312 315 312 312 312 312 311 312 315 317 315 310 308 309 310 312 314 314 316 316 317 317 316 315 315 314
306 305 304 306 308 308 307 305 304 305 306 307 306 305 305 306 307 307 306 305 304 303 303 302 301 306 309 312 316 313 308 308 309 309 308 306 307 308 307 306 306 312 320 320 318 322 320 313 310 311 309 306 306 306 306 307 308 308 309 312 312 311 314 316 313 313 313 312 312 314 315 318 314 307 307 308 308 310 311 312 313 313 313 314 313 312 311 311
303 304 302 302 304 305 306 305 305 305 305 305 304 304 304 304 304 305 305 305 303 303 305 305 302 302 304 307 313 312 309 310 310 308 308 306 307 309 309 307 306 308 314 315 317 323 322 315 312 310 307 307 307 307 308 308 307 307 309 311 312 313 316 316 313 311 312 313 314 314 314 315 310 306 307 307 307 309 310 309 310 311 311 311 311 310 309 309
302 303 303 303 302 302 304 304 305 305 306 306 304 303 303 303 302 301 301 305 307 303 304 305 302 300 300 304 309 309 307 309 309 306 307 307 308 310 311 311 308 305 309 314 316 319 319 315 314 313 310 309 309 308 310 310 309 308 307 307 308 310 311 311 309 308 310 312 312 312 312 310 306 304 305 305 306 308 309 309 309 309 310 310 309 308 308 307
301 301 302 304 302 302 304 304 305 306 306 305 305 303 302 302 302 301 299 303 308 305 302 303 302 301 301 302 305 304 303 305 307 305 305 308 308 307 307 308 307 304 308 312 313 316 316 315 315 315 314 312 311 310 311 311 310 310 309 308 310 311 310 310 309 308 309 310 308 310 312 308 304 302 303 304 306 307 308 309 308 308 308 308 308 307 307 306
299 297 298 301 301 300 302 304 305 307 306 305 304 303 302 302 302 302 300 299 302 302 301 302 303 302 301 302 303 302 300 301 303 302 303 305 306 305 304 304 304 305 307 309 311 316 317 313 312 314 315 313 311 311 313 313 310 311 313 313 314 315 312 309 307 306 309 310 310 312 312 307 303 302 302 303 304 305 306 305 305 305 305 305 305 305 304 304
298 298 297 300 301 298 298 301 303 306 305 304 304 303 303 302 301 302 303 300 299 300 299 301 303 303 303 303 303 301 299 299 300 300 301 301 302 303 304 303 302 304 306 307 310 313 313 311 310 312 313 311 308 309 312 312 312 312 311 309 309 309 307 306 305 303 304 306 310 312 309 305 302 302 302 302 301 301 301 301 302 302 302 302 302 301 301 301
Wind_Speed
15 14 14 13 12 12 12 11 11 10 10 10 11 11 11 11 11 11 11 11 11 12 12 12 12 12 13 13 13 14 16 16 15 11 9 10 7 6 6 3 12 18 16 13 12 11 8 5 6 7 6 4 0 1 2 0 1 2 2 2 3 2 3 5 5 3 1 2 3 4 4 5 5 2 3 4 6 6 3 4 3 3 4 2 5 13 22 21
15 15 14 13 12 12 12 12 11 10 10 10 10 10 11 11 11 11 11 11 12 11 11 12 12 12 12 13 13 15 17 17 15 13 10 6 3 5 6 7 13 20 19 12 11 11 8 4 5 6 4 3 0 1 2 1 1 2 2 2 3 3 2 4 3 2 1 2 5 5 1 3 4 1 2 2 4 4 2 2 3 3 4 6 11 17 21 21
16 15 14 14 13 12 12 12 11 10 10 10 10 10 10 10 10 10 10 10 11 12 11 11 12 12 12 13 13 16 18 14 9 7 2 2 4 8 7 10 14 20 17 10 10 10 9 10 10 6 2 2 1 1 2 1 2 1 2 3 3 3 2 3 4 4 3 3 6 5 1 3 3 2 1 1 3 4 4 2 2 2 4 7 12 17 20 21
16 16 15 14 13 13 13 12 11 11 10 10 10 10 10 10 10 10 10 10 11 11 11 11 12 12 12 12 13 16 14 6 2 1 2 5 1 9 11 12 14 18 13 8 10 8 9 12 8 3 2 3 1 1 4 2 2 2 2 2 2 2 3 4 5 5 4 3 4 3 3 4 1 1 1 3 4 3 5 5 5 6 9 12 13 16 19 19
17 16 16 15 14 13 13 12 11 11 10 10 10 10 10 10 9 9 9 9 10 10 11 11 11 12 12 11 13 13 7 1 1 1 2 4 2 10 14 15 15 15 12 12 12 8 9 7 4 2 2 3 3 3 3 2 2 2 3 2 3 4 3 4 4 3 3 2 3 2 4 4 1 1 3 6 5 2 1 3 3 4 11 15 16 17 18 17
17 17 16 16 15 13 13 12 11 11 10 10 9 9 10 9 9 9 8 9 9 9 10 10 11 11 10 10 11 8 3 1 2 3 3 4 2 11 16 17 16 15 14 14 12 8 6 3 2 4 2 2 4 4 3 2 2 3 2 2 4 5 4 3 2 2 3 2 3 2 3 2 1 1 2 6 5 1 4 3 2 7 13 16 17 17 17 17
16 16 17 16 15 14 13 12 11 11 10 9 9 9 9 9 8 8 8 8 8 8 9 9 10 10 9 9 7 3 1 4 4 4 5 3 4 12 17 18 16 16 14 13 10 5 3 3 3 3 3 3 3 4 3 2 2 4 3 1 3 5 5 4 2 2 2 4 3 1 3 4 4 2 1 5 3 3 5 0 8 12 15 17 16 16 16 17
17 16 17 17 16 15 13 12 11 10 10 9 9 8 9 8 7 8 8 7 7 8 8 8 9 8 8 8 3 1 1 4 6 6 6 3 6 15 19 17 15 15 13 12 9 5 4 5 5 4 3 2 3 4 4 3 2 5 4 1 2 4 6 4 3 5 4 5 2 1 5 5 4 1 2 4 1 5 4 7 12 15 16 16 16 16 16 16
17 17 16 16 16 15 14 13 11 10 10 9 9 8 8 8 7 7 7 7 7 7 7 7 7 7 7 6 1 2 2 3 7 6 3 2 8 16 18 16 16 15 11 10 9 7 6 4 4 4 3 2 3 4 3 4 3 5 5 2 2 3 4 3 4 5 4 3 3 4 6 2 0 2 3 2 5 6 6 10 12 14 16 15 15 16 16 15
17 17 16 16 16 16 16 14 12 11 10 9 9 8 8 8 7 7 6 6 6 6 6 5 5 5 5 3 0 1 2 4 9 5 3 1 9 18 18 15 17 16 11 8 7 7 5 4 4 3 2 3 3 3 3 4 2 3 4 3 4 4 4 2 4 3 1 3 5 6 5 2 1 3 2 2 6 7 9 10 11 13 15 15 15 14 13 12
18 18 17 17 16 16 16 15 13 11 10 9 9 8 8 8 7 6 5 5 5 5 4 3 4 3 2 2 0 2 3 4 9 8 5 2 8 16 18 16 18 17 12 6 7 10 5 2 4 1 1 3 3 3 2 3 2 2 3 2 4 3 4 4 5 4 1 3 6 6 3 3 3 3 1 4 8 9 11 11 11 13 13 14 15 13 10 9
18 18 18 17 17 16 16 15 14 11 10 9 9 8 8 7 6 6 5 4 4 4 3 1 2 1 2 1 3 6 6 5 10 8 3 3 5 11 15 16 17 16 14 8 8 12 6 2 5 1 1 3 2 2 1 2 1 1 2 2 2 3 4 5 3 2 3 2 5 6 3 2 4 3 4 7 10 10 11 11 11 12 12 13 13 10 10 9
18 19 18 18 18 17 16 15 15 13 11 9 9 8 8 7 6 5 4 4 3 2 2 2 1 1 1 2 5 5 7 9 11 7 1 5 4 7 11 14 16 14 14 9 5 9 9 4 1 2 2 2 0 1 1 1 0 2 2 1 2 1 3 4 1 1 3 2 5 6 4 4 6 4 7 9 12 12 12 11 11 11 11 12 11 9 10 10
19 19 18 18 18 17 17 16 15 14 12 10 9 8 8 7 6 5 3 3 3 1 2 1 1 2 1 5 7 6 8 9 10 8 6 8 6 5 8 12 14 12 11 6 2 5 11 6 1 2 2 1 1 0 0 2 1 1 2 1 1 2 3 2 2 3 4 2 4 6 5 4 5 3 8 11 13 14 13 12 12 12 12 12 10 9 9 8
18 19 18 18 17 17 17 16 16 15 13 10 9 8 8 7 5 4 2 2 2 1 3 2 1 1 1 7 7 5 5 6 7 9 9 11 9 5 7 12 12 11 9 5 2 2 8 7 0 0 1 0 0 1 0 1 2 1 2 2 1 2 3 2 2 5 4 1 3 7 4 4 5 1 7 12 13 13 12 12 12 12 12 12 11 10 9 7
18 18 18 18 17 17 17 16 16 16 14 10 8 8 7 6 4 2 1 1 1 2 3 2 1 1 2 3 4 4 4 3 3 5 7 11 9 5 9 11 9 8 7 5 3 3 5 5 1 1 0 1 2 2 2 1 1 1 1 2 2 3 2 1 2 3 4 1 3 7 3 2 2 1 7 12 12 12 11 11 12 11 11 11 10 9 9 7
18 18 18 18 17 17 17 16 15 16 14 11 8 7 6 4 1 1 1 3 2 3 4 1 1 1 3 4 5 4 3 3 3 3 7 12 9 8 12 8 5 5 4 2 2 1 2 2 0 1 1 1 1 1 2 3 2 1 1 1 1 2 2 2 1 1 1 2 4 6 5 5 0 3 8 12 11 12 10 11 11 10 10 9 9 9 9 8
18 18 18 18 18 17 17 16 15 15 14 11 7 7 4 1 2 2 3 4 3 3 4 1 1 2 3 3 3 3 4 5 2 1 8 12 9 10 10 4 5 7 5 2 1 1 1 0 0 1 1 1 1 2 4 3 3 4 2 2 1 2 3 3 2 1 1 3 4 5 7 11 2 3 9 11 10 11 9 10 10 10 10 8 9 9 10 9
19 19 18 18 18 17 17 16 15 14 14 10 5 5 2 3 3 3 3 3 3 2 2 2 3 1 2 2 3 6 8 5 3 2 9 13 11 9 5 4 8 7 4 2 2 2 1 1 1 2 2 2 3 4 4 2 3 4 2 1 2 2 3 4 3 1 1 3 6 7 8 10 5 5 10 11 10 10 9 9 9 9 9 7 9 9 9 11
19 19 19 19 18 18 17 16 15 14 13 8 3 2 1 1 1 1 1 3 5 5 5 4 6 3 4 5 4 4 4 2 2 2 11 14 12 9 2 3 4 2 2 3 3 2 1 2 3 3 4 4 4 3 2 3 3 4 2 1 2 3 4 4 2 1 1 3 4 6 7 7 3 5 9 10 10 10 10 10 9 9 9 8 11 10 10 10
20 20 19 19 19 18 17 15 14 14 12 6 1 1 1 0 1 2 1 5 7 8 10 8 8 7 6 4 1 2 2 1 1 2 11 13 12 10 1 2 2 2 1 0 2 2 1 4 4 5 5 3 3 4 4 4 2 2 2 2 2 3 4 3 1 2 1 4 1 1 6 4 1 2 7 9 10 9 10 11 9 9 9 9 11 11 10 8
21 20 20 20 19 18 17 15 15 14 10 4 1 2 2 1 1 2 2 5 7 9 12 9 5 8 9 7 6 1 2 2 2 1 9 10 7 6 2 2 3 3 0 0 2 1 2 5 6 5 3 4 4 4 4 3 2 2 1 2 2 2 3 2 1 2 1 3 1 1 4 1 3 1 4 5 7 7 8 10 9 8 10 10 10 10 10 9
21 20 21 21 20 19 16 14 15 13 6 2 4 4 2 1 4 4 2 4 6 5 8 7 5 7 7 7 8 7 4 4 2 2 9 10 3 3 4 3 3 3 2 3 4 3 3 4 4 4 6 6 4 3 4 3 2 2 1 2 2 0 1 1 1 2 2 1 1 3 3 2 3 4 4 1 2 3 3 8 8 7 9 10 10 9 10 11
21 21 21 21 21 19 16 16 14 7 3 6 9 6 2 4 7 3 3 3 5 2 4 6 5 6 6 4 8 12 5 4 3 3 10 11 4 3 4 3 3 3 3 4 4 4 4 1 2 6 6 5 4 3 5 3 2 2 3 4 3 1 2 2 1 1 1 1 2 3 3 2 2 4 5 2 2 2 2 6 8 8 8 9 10 10 11 11
21 21 22 21 21 19 17 14 6 1 7 11 9 3 1 10 9 2 3 2 3 3 2 4 3 5 6 5 10 10 4 3 5 4 10 11 7 4 3 2 3 4 3 4 4 4 5 1 4 5 3 4 4 3 5 5 3 2 5 8 7 4 3 3 2 1 2 2 3 1 2 3 2 2 5 4 4 4 2 6 9 9 10 10 11 11 11 11
22 23 23 21 21 21 15 6 2 4 11 8 4 2 7 15 7 6 2 2 2 4 2 2 2 4 6 5 7 7 4 3 4 5 10 12 10 5 3 2 1 2 4 4 3 2 2 3 3 3 3 4 4 3 5 6 4 2 3 8 8 4 2 2 1 1 1 2 2 2 1 2 3 3 3 2 6 7 4 7 9 10 11 12 12 11 11 12
23 24 23 21 20 18 10 3 6 8 7 4 2 4 13 14 2 8 1 2 2 2 0 0 1 4 5 5 7 6 3 2 3 6 8 11 9 2 2 4 1 1 3 3 2 2 3 4 2 2 3 4 4 3 6 8 5 1 1 5 7 5 4 4 1 1 0 0 1 1 1 2 3 3 2 2 6 8 7 8 8 9 11 12 12 12 12 13
25 25 24 21 18 14 7 8 9 6 6 5 4 9 14 6 7 6 1 1 1 1 1 0 1 4 2 3 6 3 1 2 4 3 4 8 6 2 2 6 4 4 3 4 4 1 3 4 4 4 2 2 4 3 7 11 5 0 2 4 5 4 3 3 1 1 1 1 3 1 3 1 2 2 2 4 5 7 8 7 8 9 11 13 12 13 13 13
28 28 24 21 19 13 8 9 8 7 9 8 7 13 10 3 7 2 2 0 2 0 1 1 2 2 2 3 5 4 2 1 1 1 2 5 3 2 2 4 4 4 2 2 4 0 1 3 4 5 2 3 2 0 6 9 3 2 5 6 5 4 4 2 1 2 1 2 4 1 4 1 3 1 1 2 2 2 3 3 5 6 9 11 11 11 11 10
31 29 24 20 16 11 6 9 13 10 10 8 9 12 3 6 2 2 1 2 2 0 1 1 1 1 4 5 3 3 2 2 2 3 2 2 2 2 1 2 4 3 1 1 2 1 1 1 1 3 2 1 3 4 1 2 3 5 5 6 5 3 2 2 2 1 2 3 2 2 5 2 3 1 1 0 1 2 3 3 2 2 4 8 9 9 9 8
32 29 23 17 14 9 3 6 10 6 2 4 12 8 2 3 2 2 2 2 1 0 1 0 1 1 4 4 2 2 2 1 2 4 4 2 3 2 1 2 3 2 1 1 2 1 2 1 1 2 1 3 5 5 2 2 3 3 2 3 4 1 1 1 1 0 4 3 1 2 3 2 3 2 0 2 2 3 4 6 5 4 4 6 7 7 7 6
33 28 23 17 13 12 10 8 6 4 4 8 11 3 3 1 1 3 2 2 0 0 1 0 1 0 1 1 2 3 2 1 2 4 4 3 4 4 3 4 3 2 2 3 2 1 2 3 2 2 1 3 4 4 3 1 1 1 2 3 3 2 1 2 1 1 3 1 1 2 1 1 1 1 2 4 5 5 4 6 9 9 7 6 5 6 6 6
32 26 21 16 11 16 18 15 12 12 13 11 6 2 3 1 3 4 3 1 0 1 1 1 2 1 1 1 2 3 2 2 3 3 2 2 4 5 1 1 3 2 1 2 2 1 2 2 1 1 2 3 5 5 3 3 3 4 4 4 4 3 2 3 1 1 2 1 1 1 1 1 1 1 3 5 6 7 6 6 6 7 7 5 3 5 6 6
29 23 18 12 8 11 13 14 14 11 9 6 0 3 3 3 3 2 3 3 1 2 1 0 2 2 2 1 1 2 2 2 4 4 3 3 3 4 2 1 2 1 1 2 2 2 3 2 2 3 1 2 6 5 2 4 4 3 1 2 4 4 3 3 3 3 3 1 2 1 2 2 2 1 3 6 6 6 5 5 4 2 0 2 5 7 7 7
26 19 10 5 6 10 12 10 10 8 4 1 2 2 4 5 2 1 2 2 1 1 2 1 1 1 1 1 2 1 1 1 2 4 4 3 4 3 3 4 5 2 2 3 2 1 1 3 2 1 1 2 4 2 3 4 4 1 0 1 2 3 3 1 0 1 1 1 1 1 1 1 0 0 2 4 3 3 4 4 4 4 6 7 8 9 9 8
23 12 3 5 13 16 13 8 6 10 7 2 2 3 3 3 2 2 2 1 2 0 2 1 1 1 1 1 1 0 0 1 2 2 3 2 3 3 2 3 5 5 4 3 2 1 1 2 1 1 0 0 2 2 2 0 2 3 2 3 1 0 3 3 2 2 1 2 2 1 1 0 1 2 2 3 2 2 3 4 5 5 6 8 8 8 9 9
20 9 3 8 21 20 11 4 9 13 6 2 4 4 2 2 3 3 1 1 2 1 0 0 0 1 1 1 1 1 1 2 2 1 2 1 2 3 2 2 4 8 7 2 1 2 2 1 1 1 2 2 2 2 5 3 1 3 3 5 3 2 3 2 2 2 0 3 2 1 0 1 3 3 3 3 3 4 4 5 5 4 4 5 5 5 6 7
15 5 1 11 23 18 7 5 15 13 3 2 4 3 2 2 2 2 1 1 1 2 2 1 1 1 0 0 1 1 1 2 1 0 2 1 1 2 2 2 3 5 5 2 1 1 2 2 1 1 1 2 3 1 5 3 3 1 2 5 3 2 2 1 2 2 3 3 1 1 1 2 3 1 1 3 2 3 4 5 4 3 2 2 3 5 7 6
7 1 0 14 23 11 3 12 16 8 1 4 5 3 3 3 2 2 1 0 1 1 1 1 1 1 0 1 1 1 1 2 2 1 1 0 1 1 0 1 2 1 2 3 3 1 1 2 1 0 1 1 1 1 3 3 4 3 3 3 1 1 2 2 1 2 4 3 2 2 2 3 3 0 2 0 0 1 2 3 3 2 2 2 2 3 5 5
3 0 1 15 16 7 13 12 8 2 2 3 3 1 1 2 2 3 3 1 1 1 0 1 1 0 1 1 1 1 1 1 2 2 2 0 1 1 1 2 1 1 1 2 2 1 2 1 2 0 1 2 1 0 2 3 3 3 4 3 1 1 1 1 1 1 1 3 3 3 3 2 2 2 3 4 4 3 1 2 3 2 1 2 2 3 3 3
1 1 3 11 8 10 8 4 2 1 3 1 0 2 1 1 1 2 1 1 1 1 0 2 2 1 1 1 1 1 1 0 1 1 2 1 1 1 2 4 3 3 1 2 2 1 1 2 2 0 0 2 1 3 2 2 1 2 3 3 3 3 3 3 3 1 0 1 2 3 4 2 3 2 4 6 6 5 2 3 5 3 2 3 4 4 4 3
1 1 6 11 0 3 4 1 1 1 2 0 0 2 1 0 1 1 0 1 1 0 1 1 2 2 2 2 2 1 0 1 1 1 1 1 2 3 0 4 4 2 0 0 1 1 1 2 2 1 1 0 1 1 0 1 2 2 1 1 2 2 2 3 4 3 2 1 1 1 2 2 3 4 4 4 5 4 1 4 7 5 4 6 6 6 6 5
1 0 8 14 1 7 3 2 1 2 0 1 1 2 1 0 0 1 1 2 1 0 1 0 1 1 2 1 1 2 2 1 1 0 1 2 2 3 1 5 5 2 0 1 0 2 1 1 2 2 1 1 1 1 1 0 2 2 3 3 1 0 1 1 1 2 3 3 2 2 3 2 3 5 5 4 4 3 3 5 7 6 6 8 8 7 6 5
1 2 4 15 9 3 1 2 1 2 1 3 2 1 1 1 1 1 1 2 2 1 1 0 1 0 1 1 1 1 1 1 1 2 1 2 1 0 2 3 2 2 2 1 1 1 1 0 1 2 2 1 2 3 2 0 1 2 2 2 1 2 4 3 2 2 3 2 2 3 3 3 3 4 6 7 7 7 6 6 7 7 7 8 8 7 6 5
2 1 2 10 15 8 3 1 1 1 2 3 2 3 4 2 1 2 2 3 2 1 0 0 1 1 1 1 2 2 3 1 0 2 1 1 2 2 3 2 3 2 3 3 2 2 2 0 0 2 4 4 3 2 1 1 1 1 2 3 3 1 2 3 3 2 4 3 2 2 2 4 3 4 8 9 8 7 7 7 7 7 7 7 7 7 6 7
1 2 2 4 7 6 2 1 1 0 1 1 2 4 4 2 2 2 3 4 2 2 2 2 2 1 1 2 2 2 5 3 1 3 3 2 1 1 4 4 3 4 3 5 4 2 3 2 2 3 4 2 1 1 3 1 1 2 3 4 5 4 3 0 3 3 3 4 3 1 1 5 3 5 8 8 8 6 6 6 7 7 6 7 7 7 8 8
1 1 2 2 3 3 3 4 5 4 2 0 1 4 5 3 2 2 3 3 2 2 2 3 5 2 0 1 2 2 3 4 4 4 2 3 2 2 4 3 5 7 3 1 3 2 4 2 2 5 8 5 2 1 3 3 4 4 3 3 4 5 4 1 2 2 2 4 4 2 2 5 3 6 7 6 7 5 5 6 6 6 6 6 7 8 10 10
2 1 1 2 2 3 4 5 7 7 6 4 2 4 7 7 5 4 4 2 3 4 2 2 8 7 2 1 2 2 3 3 4 4 2 3 2 3 4 2 4 7 4 1 2 3 5 2 2 3 7 6 5 4 5 6 5 5 6 5 5 6 6 4 4 3 1 1 2 4 5 4 3 4 5 6 5 4 5 5 5 6 6 7 9 11 12 12
2 1 1 2 2 2 2 4 6 7 10 7 4 6 9 9 8 5 4 2 3 6 4 3 7 10 6 2 1 3 3 2 4 3 2 3 3 2 3 2 2 6 5 3 2 2 4 1 1 2 5 4 5 5 7 8 5 5 8 7 5 6 8 7 5 4 3 5 4 7 9 7 4 4 4 5 3 2 4 5 7 8 8 9 12 12 13 13
1 1 2 1 2 1 2 4 5 5 7 7 5 6 8 9 9 6 5 5 3 5 6 4 4 7 7 8 6 6 4 3 3 3 1 1 2 2 2 1 2 5 5 3 1 1 2 2 3 2 3 2 5 4 5 8 7 5 5 5 5 5 6 5 4 3 5 6 5 6 9 7 4 4 4 4 3 4 7 9 10 9 9 11 13 13 13 13
1 1 1 1 2 4 4 3 4 2 4 6 6 6 6 8 8 4 3 6 5 4 5 4 3 3 4 9 10 6 4 3 2 2 2 1 2 1 1 0 1 3 4 3 1 2 2 3 2 2 3 1 4 3 4 7 7 3 2 3 4 4 2 3 3 2 2 3 6 5 5 5 3 3 5 6 7 10 11 11 10 9 10 13 14 13 13 13
3 1 1 1 1 4 3 2 4 3 3 4 5 5 6 7 8 4 3 4 7 7 5 4 2 1 3 8 8 5 5 5 6 5 3 2 1 1 1 0 1 1 2 1 1 1 2 4 4 2 4 2 2 2 3 5 3 1 1 1 2 2 3 2 3 4 4 1 3 3 4 5 3 3 6 9 11 11 11 9 8 9 11 13 13 12 12 11
Wind_Direction
336 333 330 328 326 324 323 322 319 317 317 316 316 316 316 317 318 318 320 322 323 321 320 319 317 317 317 319 319 314 311 310 306 290 254 264 276 223 222 192 173 171 160 146 141 140 131 133 139 145 149 142 326 149 160 191 146 184 185 210 219 190 170 185 192 190 197 350 336 354 14 19 20 52 129 115 92 97 89 39 23 26 24 50 96 123 133 137
340 337 333 330 326 322 321 321 318 316 315 313 313 313 315 316 318 319 320 323 323 320 320 318 318 319 318 322 322 316 316 312 297 271 254 263 241 213 208 171 170 174 165 151 152 150 146 151 151 148 143 153 165 131 173 176 187 189 153 223 218 178 176 200 198 191 255 321 326 335 40 25 349 282 191 181 128 129 137 47 0 26 66 87 115 128 129 136
345 342 338 333 328 322 321 320 316 315 313 311 310 311 313 313 315 317 320 322 322 322 320 318 321 320 320 324 322 317 316 311 292 255 232 29 204 202 181 161 168 174 171 162 160 161 161 159 157 151 125 149 114 153 169 159 199 179 189 233 205 200 236 226 218 215 231 301 318 323 5 2 328 223 249 236 153 172 207 172 189 207 158 131 130 131 130 139
349 346 343 338 332 325 323 320 316 315 313 310 310 311 311 311 313 315 320 320 320 323 320 320 321 320 322 323 317 317 317 299 268 206 99 31 152 176 171 158 155 167 175 166 158 158 150 144 146 136 120 145 73 172 173 173 192 157 205 225 146 177 237 243 237 220 210 252 294 315 327 335 30 159 235 179 161 214 236 206 200 196 168 150 140 136 139 146
352 349 347 344 338 331 326 321 317 315 311 309 309 311 311 310 312 313 317 319 320 321 318 320 322 322 323 320 320 323 320 225 184 329 32 18 113 163 166 155 146 154 158 151 148 145 140 130 123 114 109 146 145 171 178 176 163 166 202 188 134 160 232 263 269 243 188 214 269 303 326 330 77 147 195 183 190 218 276 248 236 166 158 155 147 143 148 154
353 352 351 347 344 336 329 323 318 315 310 308 309 311 310 308 311 313 316 318 318 321 322 323 323 324 324 324 327 331 324 270 282 296 333 356 147 161 161 155 148 148 147 143 140 144 137 105 134 148 120 129 161 172 170 171 183 215 197 165 185 186 233 256 258 242 165 186 263 279 324 338 281 299 181 204 232 319 1 305 205 142 151 154 149 149 155 160
354 353 352 350 348 340 334 326 320 315 311 308 308 308 307 307 310 312 314 317 318 323 326 324 325 325 334 336 327 345 343 274 292 307 310 319 163 165 162 157 154 153 150 142 135 137 127 130 158 153 136 128 180 184 156 141 187 239 215 193 210 190 225 236 225 256 208 226 251 304 310 283 261 295 158 216 251 357 1 97 140 136 145 151 152 154 160 163
355 354 353 352 349 345 339 331 324 317 312 310 307 305 305 305 307 311 313 314 316 321 322 322 328 332 344 353 339 335 266 263 308 319 307 303 174 172 166 159 162 160 155 152 146 148 146 155 163 162 165 146 184 174 151 151 164 233 224 201 197 195 233 242 252 263 257 249 214 194 264 262 241 192 216 238 45 44 58 109 127 134 142 152 157 158 162 165
354 354 354 353 351 349 343 337 329 319 315 310 305 302 303 305 307 310 309 310 316 318 321 322 326 333 347 2 356 303 250 293 335 323 305 280 182 177 172 166 169 165 154 154 148 151 165 176 175 189 188 137 177 164 163 195 194 218 212 205 222 250 267 263 265 256 259 255 156 194 247 269 189 175 231 282 80 94 105 116 128 137 145 155 161 161 162 159
354 354 353 352 352 352 348 342 334 326 320 311 306 303 304 308 305 307 307 310 319 319 325 332 324 327 345 354 272 306 304 0 5 13 30 183 181 177 179 176 174 169 154 150 154 159 181 195 177 190 157 116 182 159 162 196 161 182 185 221 239 277 306 274 272 261 289 256 190 217 255 40 84 203 218 84 113 127 122 124 135 142 151 160 164 162 156 148
355 355 354 353 352 352 351 346 339 332 323 316 310 305 304 304 300 303 306 309 319 322 331 343 327 330 10 21 178 264 269 2 9 19 42 144 183 183 188 185 179 175 158 153 192 190 195 183 159 172 145 144 176 151 184 191 116 151 167 243 253 292 284 236 269 268 238 248 196 209 252 89 121 212 200 132 142 140 130 133 142 149 157 165 167 160 151 143
355 356 356 355 353 351 350 348 344 336 327 321 312 307 304 300 300 302 303 311 316 322 339 348 311 328 32 329 220 239 254 301 328 344 39 151 186 194 198 192 187 187 177 175 212 206 210 199 169 156 119 156 167 149 191 170 111 132 147 264 273 326 270 215 252 255 193 233 164 168 228 176 182 177 129 147 151 140 137 140 147 157 165 172 169 157 154 145
355 355 356 355 354 353 352 349 347 340 331 324 315 310 305 299 301 298 295 301 297 305 324 343 342 50 45 257 231 251 278 288 298 308 191 178 191 198 200 195 191 196 196 190 198 206 210 210 153 67 121 171 202 137 136 102 119 160 124 280 280 312 255 196 154 128 182 210 146 170 239 227 211 186 142 156 157 145 143 150 158 166 172 175 169 155 155 147
353 353 354 354 353 352 352 350 348 343 334 327 321 313 306 303 298 292 293 285 281 285 253 245 45 92 123 264 267 284 290 283 272 260 215 190 182 171 184 191 191 195 199 189 123 203 208 206 47 68 166 229 351 301 87 45 35 137 137 164 301 245 214 178 144 157 183 182 152 196 241 234 226 197 155 165 164 154 152 161 169 175 178 177 169 161 156 146
350 351 351 352 352 350 351 350 348 346 338 329 323 318 313 310 302 290 280 260 272 241 175 161 150 113 292 278 287 295 279 279 258 246 230 202 184 157 173 183 186 193 195 186 102 141 193 193 162 35 204 307 128 214 251 49 50 57 187 180 171 224 231 280 189 190 209 74 147 202 236 245 243 179 150 167 173 164 159 166 175 180 180 176 171 168 158 141
349 349 348 349 350 349 349 348 347 347 343 332 325 324 310 303 307 295 284 158 142 173 168 130 162 185 280 281 321 317 262 266 264 252 225 202 197 162 157 164 169 185 187 188 173 108 146 163 107 4 28 131 159 157 133 139 105 62 252 200 169 199 234 303 165 206 244 92 169 212 233 237 242 69 152 167 177 170 160 167 177 183 181 179 177 174 164 144
348 347 346 346 347 347 346 345 345 345 344 335 327 326 307 298 331 41 87 111 124 177 173 116 90 190 268 279 310 313 266 280 285 250 190 188 201 162 142 141 146 159 153 159 187 146 120 147 80 54 56 62 151 159 163 189 197 174 245 199 191 210 218 254 157 128 248 176 198 213 224 226 337 65 158 166 178 175 164 169 177 186 185 181 183 183 181 166
346 345 345 343 344 344 342 342 341 341 344 337 331 340 334 78 93 100 115 131 123 135 159 138 144 210 263 272 295 296 300 299 274 193 169 171 182 159 140 130 131 130 127 96 120 182 182 127 311 159 112 76 163 180 187 200 192 174 183 184 209 226 220 257 253 125 146 211 214 190 216 231 226 96 161 167 178 182 171 171 176 187 186 178 186 192 194 188
344 343 343 341 341 343 340 340 337 336 340 336 338 5 36 113 107 114 116 131 138 173 241 201 188 273 310 260 281 292 298 290 238 196 161 161 163 154 123 108 127 126 140 148 150 181 179 132 163 180 176 187 187 198 201 180 144 149 149 182 208 234 239 254 265 243 179 233 229 201 215 228 197 146 168 169 177 186 178 173 176 184 182 178 192 199 201 202
343 342 341 340 340 341 339 337 334 332 335 337 358 44 84 112 90 130 134 203 209 246 279 213 189 255 296 271 286 297 297 277 247 183 163 164 158 152 103 71 115 108 135 153 154 155 194 180 184 199 197 199 198 191 156 114 114 131 137 195 228 248 259 255 248 313 233 229 233 210 223 232 186 156 173 172 175 185 186 184 185 181 179 188 200 204 205 208
341 340 340 339 339 339 338 334 330 327 328 332 353 175 240 204 348 329 279 237 227 231 249 228 196 227 252 253 293 50 33 308 317 142 166 166 153 157 177 27 130 135 127 224 135 113 219 198 210 218 203 185 167 147 127 122 114 136 182 241 254 226 253 269 202 3 301 222 230 187 218 220 64 159 175 176 180 189 197 194 191 183 185 201 206 208 210 205
338 339 338 338 337 337 338 334 326 321 318 313 238 234 264 207 192 315 302 274 255 216 230 237 216 247 250 245 251 270 28 278 308 123 165 158 156 177 167 87 162 153 67 294 140 126 214 217 227 212 154 100 103 133 143 137 130 138 173 244 249 211 259 277 199 12 31 215 250 154 192 140 40 111 163 184 188 188 204 203 199 186 190 209 210 210 214 207
337 337 337 337 335 336 338 332 320 314 305 254 244 241 235 267 300 299 266 288 282 215 216 225 214 238 239 248 236 197 187 213 221 220 174 161 157 184 151 135 165 135 139 189 177 174 198 243 238 166 143 128 113 132 143 131 156 183 182 217 232 162 254 215 111 15 28 270 270 138 145 65 54 110 121 120 155 133 183 198 199 194 198 213 215 214 216 213
337 337 337 335 333 335 339 328 313 307 307 285 272 249 199 327 324 294 194 263 285 272 221 205 198 218 221 231 189 174 181 196 192 207 178 166 132 143 162 146 146 149 181 185 171 196 218 286 100 128 147 157 137 141 165 174 196 217 213 216 237 217 227 250 1 324 234 62 55 114 128 86 71 127 140 121 96 96 125 180 190 197 208 218 219 220 220 218
338 338 337 335 333 334 338 327 302 292 319 298 275 237 355 335 332 193 177 306 272 283 261 188 195 216 200 170 165 166 164 189 213 200 173 169 144 137 162 133 170 186 176 150 146 217 241 176 132 132 138 163 155 169 195 194 190 233 216 212 226 216 209 264 306 265 188 117 53 19 169 137 70 119 151 147 165 173 169 195 198 198 209 220 224 224 222 220
340 339 337 334 332 334 340 329 230 317 315 293 239 214 330 332 326 178 174 359 262 283 312 173 208 192 168 150 159 156 144 190 220 172 167 172 154 138 149 130 251 197 156 146 154 237 231 130 150 153 144 168 184 216 210 189 180 230 211 200 209 205 173 227 246 214 197 126 65 325 234 149 105 112 131 156 183 179 179 201 204 203 210 218 224 225 221 220
341 339 336 332 330 336 341 290 293 311 298 270 230 306 326 328 235 171 189 359 272 287 346 236 245 179 167 166 171 163 159 157 129 148 172 177 160 119 178 165 174 174 146 151 185 219 155 129 123 130 128 158 192 228 200 181 182 202 164 165 174 179 184 191 179 118 301 22 134 351 320 160 129 123 147 186 182 184 195 202 202 205 211 218 224 223 221 220
340 338 335 328 325 326 305 281 294 280 253 270 290 315 328 326 165 164 4 8 283 285 168 317 137 165 152 157 182 202 290 119 134 165 187 176 167 54 191 194 189 170 149 179 200 176 144 173 176 154 131 180 206 222 177 176 190 294 119 130 141 153 163 163 146 110 48 252 188 42 352 184 147 110 159 165 167 184 196 202 207 208 210 215 222 220 217 218
338 337 330 323 321 315 293 267 258 258 276 284 302 321 331 153 158 120 51 176 260 307 94 94 129 154 96 126 209 249 319 10 140 151 126 165 178 50 175 191 156 146 121 208 218 194 134 212 182 162 181 220 219 157 171 178 188 148 132 103 93 90 82 86 129 123 98 227 198 7 348 223 174 62 58 125 121 164 189 200 211 219 220 217 219 220 213 209
337 334 327 322 315 308 291 254 259 284 288 279 315 329 342 146 139 52 109 257 265 110 93 141 154 164 118 132 223 254 264 323 62 110 111 146 138 47 90 121 100 137 126 338 258 248 353 344 142 185 215 184 111 78 131 166 115 150 143 101 94 73 56 66 42 80 171 203 186 354 342 304 196 172 356 187 66 338 307 288 226 222 250 234 227 225 214 204
334 331 325 314 297 282 263 254 278 306 256 293 332 335 143 129 37 127 188 258 262 341 23 89 46 104 138 151 209 228 214 313 82 137 144 141 135 93 126 136 99 122 164 280 258 283 329 259 207 233 189 126 108 90 52 33 108 152 143 118 131 70 37 103 38 157 197 184 105 3 339 292 216 181 238 281 317 314 293 291 291 298 284 254 236 225 211 199
332 331 322 307 282 251 236 241 271 280 258 316 336 336 152 140 215 191 243 290 305 12 57 22 304 115 148 193 199 184 175 174 162 158 149 151 169 170 182 181 162 158 204 222 227 336 266 226 268 317 191 166 140 107 94 80 114 150 126 140 164 150 159 200 204 205 217 197 72 358 321 225 240 275 303 304 321 325 302 289 292 293 281 266 242 217 197 184
330 330 321 308 274 247 252 261 263 268 281 300 324 55 104 165 213 209 236 268 25 30 103 201 296 302 174 204 195 174 161 181 188 179 150 137 175 184 192 156 162 166 188 192 184 224 233 238 297 250 209 190 179 163 155 170 189 185 159 162 177 152 153 192 177 203 247 227 72 353 270 189 203 300 295 302 321 330 322 307 301 293 281 273 228 176 157 153
330 330 321 314 291 272 284 281 263 263 280 283 211 95 134 189 226 205 211 245 289 339 337 212 328 322 176 198 252 170 161 198 176 166 163 141 173 197 195 190 187 153 92 146 179 190 210 233 200 191 179 165 189 194 152 139 157 178 154 160 179 167 175 203 197 198 208 161 90 154 205 182 149 96 326 311 320 333 336 342 348 347 47 120 119 121 121 123
332 331 325 344 354 338 330 303 262 236 226 186 108 139 179 196 232 186 196 243 252 308 322 356 24 323 188 295 297 184 186 228 146 150 168 158 178 188 180 198 200 165 138 176 205 138 212 255 254 273 319 176 196 188 98 116 134 125 46 149 183 184 154 138 133 167 179 145 130 179 217 291 201 286 306 298 318 352 13 35 52 78 103 111 110 112 116 116
334 341 14 28 357 344 334 312 238 195 186 149 147 192 201 213 213 174 185 182 143 168 305 323 80 185 254 279 255 87 24 66 96 162 184 176 195 181 180 205 189 180 177 173 193 150 142 260 304 345 72 121 250 164 102 189 163 132 172 178 179 89 114 117 113 52 11 207 180 144 194 208 199 197 195 190 162 97 75 72 79 85 104 115 116 123 129 128
337 353 83 3 348 340 327 290 179 171 167 155 188 204 217 225 192 178 209 130 118 90 40 279 291 217 250 258 236 266 172 111 78 210 183 174 216 180 193 228 180 193 200 174 213 220 193 223 341 6 114 50 315 140 84 26 122 146 180 164 138 78 81 111 150 94 132 209 183 94 155 182 189 177 155 166 160 124 91 68 77 80 91 111 105 102 108 111
333 344 103 352 345 337 321 178 162 156 138 176 201 222 211 204 192 188 217 84 104 64 83 188 282 328 251 229 256 288 244 167 115 175 171 179 231 159 175 217 175 201 219 183 192 229 203 223 328 302 166 44 341 148 110 62 26 38 148 134 135 190 160 148 162 152 183 201 170 140 197 232 209 187 113 161 160 114 84 58 72 83 58 70 70 75 88 89
335 335 65 351 344 335 150 151 153 145 113 184 199 222 199 209 245 234 232 74 111 99 102 212 257 343 279 247 230 292 286 195 147 126 146 178 240 154 39 249 169 210 267 200 186 144 140 235 227 150 291 350 1 238 174 134 62 61 116 113 27 291 168 167 153 166 189 191 164 156 195 227 205 17 1 224 2 85 114 76 69 76 33 13 43 81 102 107
358 139 25 0 5 76 125 139 147 137 172 184 200 202 186 219 252 252 235 228 189 190 238 193 183 262 247 270 250 232 351 174 152 145 151 89 302 160 31 355 357 336 316 168 175 128 94 215 215 89 319 221 171 354 234 178 119 125 150 153 136 79 90 176 104 43 193 177 164 171 195 200 122 33 314 299 313 314 215 128 96 79 47 45 73 100 112 114
11 108 9 6 45 103 105 132 143 114 174 157 325 195 249 217 225 299 259 225 230 238 13 169 184 241 234 274 268 227 355 223 161 134 151 129 338 147 65 26 358 333 1 116 143 165 123 174 195 176 139 186 62 13 297 241 200 174 174 174 153 127 141 169 166 155 353 167 168 182 194 162 73 17 310 298 300 303 272 149 117 105 107 91 83 86 83 76
36 99 360 358 52 175 5 134 167 16 164 159 272 206 280 223 204 304 20 43 300 263 19 184 206 230 208 233 268 218 271 243 177 165 187 152 171 196 87 12 358 338 75 98 151 159 128 122 121 84 83 49 6 22 303 221 144 115 84 110 140 137 146 177 190 176 136 140 147 169 201 147 53 4 336 319 308 307 252 142 120 115 119 102 92 88 84 82
59 176 3 9 283 223 336 77 206 354 155 284 303 215 254 131 251 300 93 38 355 162 19 223 195 227 218 237 248 199 222 242 175 128 162 124 153 206 330 0 346 330 125 341 22 131 117 79 82 86 41 341 312 186 229 238 136 98 53 52 118 177 95 134 177 150 150 161 147 171 202 140 57 9 4 9 14 48 86 108 110 112 109 101 99 96 89 82
32 227 353 19 34 174 94 60 292 336 314 314 353 32 335 41 37 346 102 45 16 54 9 196 140 349 289 35 90 175 245 229 84 39 93 112 102 3 29 49 34 357 354 338 193 154 83 33 84 107 124 134 168 187 200 170 86 79 57 11 336 92 104 118 102 114 172 181 164 196 195 128 79 25 27 28 37 62 71 77 90 97 100 100 98 93 84 76
11 192 256 11 30 54 80 70 254 258 306 324 23 21 355 30 34 357 83 79 44 45 72 47 24 1 7 58 88 46 15 1 52 25 38 72 84 40 3 40 103 79 13 30 59 88 88 46 309 145 169 181 175 181 192 150 115 90 66 11 4 53 123 138 131 171 192 170 168 213 175 123 104 28 26 23 26 45 53 59 72 76 82 88 87 83 77 69
30 41 299 335 21 42 55 13 347 251 295 340 38 17 355 344 334 355 72 74 39 28 45 21 355 341 45 55 104 60 20 11 55 72 51 9 41 47 342 341 67 67 47 49 48 79 105 66 15 81 111 135 127 341 324 316 108 88 62 28 10 336 313 74 133 180 176 150 166 230 130 140 129 13 11 13 17 28 34 43 62 66 65 71 74 72 67 63
94 57 353 323 347 10 27 26 15 1 337 330 50 6 352 350 346 0 39 53 61 54 57 43 25 22 14 46 117 88 12 10 43 58 44 351 322 317 326 336 29 18 10 54 17 46 95 69 11 69 77 67 59 21 2 37 66 58 37 13 4 344 325 1 115 127 135 152 177 187 135 144 109 9 360 2 5 15 29 33 50 57 55 65 68 66 64 59
47 131 303 332 349 350 5 4 352 358 16 37 61 18 11 22 32 20 356 12 55 30 19 52 27 17 344 254 137 85 7 16 44 30 4 15 4 330 344 20 34 15 17 55 13 72 105 75 329 75 88 73 41 24 41 64 79 67 42 17 5 12 19 44 45 5 313 186 157 134 125 111 61 7 357 1 359 10 30 33 51 59 60 70 68 63 60 54
40 87 303 12 47 331 341 344 335 3 24 24 36 32 20 25 35 27 344 336 33 12 12 66 23 10 17 26 115 83 22 29 63 36 359 22 24 10 13 12 354 9 30 61 38 90 113 112 261 133 109 69 20 21 52 62 67 55 38 26 28 45 54 67 57 25 50 67 76 107 105 83 41 359 3 10 1 31 59 60 63 62 64 71 68 63 59 55
45 66 315 41 76 330 338 359 352 16 25 14 25 29 15 16 24 24 15 22 33 359 7 53 23 3 28 47 70 84 40 10 54 43 1 21 32 37 49 49 325 348 10 49 35 22 101 163 201 143 102 17 347 10 61 70 75 65 38 21 25 41 48 58 60 43 68 84 89 95 92 79 44 25 36 36 40 67 70 63 60 58 61 69 69 63 59 57
13 213 329 80 47 0 356 4 0 26 27 13 17 12 5 8 3 2 56 47 51 37 358 351 347 340 33 48 55 64 19 326 298 317 308 329 21 26 40 82 289 329 359 27 358 341 74 129 155 105 129 240 332 0 46 63 67 53 15 13 8 13 37 54 53 8 4 119 130 114 95 89 74 62 65 63 63 65 63 59 60 59 57 65 69 65 62 60
357 194 36 79 71 11 354 351 8 35 37 6 2 358 358 2 355 3 90 45 32 42 11 318 325 351 41 40 28 354 321 286 269 282 284 270 273 261 285 311 253 301 350 32 25 351 95 138 146 141 159 178 20 58 73 66 62 319 314 48 14 44 112 105 62 25 349 298 152 127 114 114 115 104 83 71 64 61 57 52 55 59 60 65 67 66 65 62